Find OneWeb SL0230

NORAD ID: 48769 Int'l Des: 2021-045 Owner: ONEWEBN Country: UK Constellation: oneweb operational
LEOCIRCULARPOLARONEWEB_TYPE

实时位置

正在加载3D地球...

关于 OneWeb SL0230

正在加载描述...

即将过境

Passes for default location (London). Set your location on the main map for personalized predictions.

高度历史

Loading altitude history...

两行轨道根数

1 48769U 21045C 26126.94169403 -.00000036 00000-0 -13035-3 0 9995
2 48769 87.8965 267.4271 0001951 101.2461 258.8889 13.15553252239249
Epoch: May 6, 2026 • Age: 20 hours

当前状态

高度 1232.0 km
速度 7.24 km/s
星下点 -87.69°S, 63.08°E
发射日期 May 28, 2021
运行时间 4.9 years
类型 internet

技术详情

分类 Payload
质量 148.00 kg
干质量 140.00 kg
总质量 148.00 kg
长度 1.30 m
直径 1.00 m
跨度 5.00 m
形状 Trapezoid+2 pan
制造商 ONEWUS
平台类型 ARROW
阶段状态 In Orbit
所有者/国家 ONEWEBN/UK

Most Searched